Regional Weather Roundup
Issued by NWS Sterling, VA

Home | Current Version | Previous Version | Graphics & Text | Print | Product List | Glossary On
Versions: 1 2 3 4 5 6 7 8 9 10 11 12 13 14 15 16 17 18 19 20 21 22 23 24 25 26 27 28
000
ASUS41 KLWX 181211
RWRLWX

REGIONAL WEATHER ROUNDUP
NATIONAL WEATHER SERVICE BALTIMORE MD/WASHINGTON DC
800 AM EDT WED OCT 18 2017

Note: "FAIR" indicates few or no clouds below 12,000 feet
with no significant weather and/or obstructions to visibility.
 TC=TEMPERATURE CELSIUS

 * =Non NWS site. Station does not report precipitation (e.g. rain,
    snow, etc.), thunder, or fog.

DCZ001-MDZ009-015-VAZ040>042-051-053>054-181300-
WASHINGTON METRO

CITY           SKY/WX    TMP DP  RH WIND       PRES   REMARKS
WASHINGTON NAT CLEAR     48  40  73 CALM      30.38S
DULLES         CLEAR     38  37  97 CALM      30.38R
ANDREWS AFB    CLEAR     41  40  95 CALM      30.36R
FT BELVOIR     CLEAR     38  37  96 CALM      30.38R
QUANTICO       CLEAR     44  42  93 NW6       30.40R
COLLEGE PARK*  CLEAR     39  38  97 CALM      30.37S
LEESBURG*      CLEAR     39  39 100 CALM      30.39R
MANASSAS*      CLEAR     36  35  96 CALM      30.39R
GAITHERSBURG*  CLEAR     39  38  96 CALM      30.37R

$$

MDZ006>007-011-014-181300-
BALTIMORE METRO

CITY           SKY/WX    TMP DP  RH WIND       PRES   REMARKS
BWI AIRPORT    CLEAR     42  40  92 SW3       30.36R
MD SCIENCE CTR   N/A     51  37  58 MISG      30.37R
MARTIN STATE   CLEAR     45  45 100 CALM      30.38R
ANNAPOLIS      CLEAR     48  44  86 W3        30.37R
FORT MEADE*    CLEAR     36  34  93 CALM      30.39S

$$

MDZ012-015-019>023-181300-
MARYLAND EASTERN SHORE

CITY           SKY/WX    TMP DP  RH WIND       PRES   REMARKS
OCEAN CITY     CLEAR     41  40  96 CALM      30.38R
SALISBURY      CLEAR     38  37  97 CALM      30.37R
CAMBRIDGE*     CLEAR     39  37  93 CALM      30.38R
EASTON*        CLEAR     43  41  93 CALM      30.40S

$$

MDZ017>025-181300-
SOUTHERN MARYLAND

CITY           SKY/WX    TMP DP  RH WIND       PRES   REMARKS
PATUXENT RIVER CLEAR     39  37  92 W5        30.38R
ST INIGOES     CLEAR     44  42  93 CALM      30.37R
LEONARDTOWN*   NOT AVBL

$$

MDZ003>005-181300-
NORTH CENTRAL MARYLAND

CITY           SKY/WX    TMP DP  RH WIND       PRES   REMARKS
FREDERICK*     CLEAR     39  39 100 CALM      30.40R
HAGERSTOWN APT CLEAR     42  38  85 E3        30.37R
WESTMINSTER*   CLEAR     43  37  81 CALM      30.36R

$$

MDZ501>502-181300-
WESTERN MARYLAND

CITY           SKY/WX    TMP DP  RH WIND       PRES   REMARKS
OAKLAND*       CLEAR     45  32  61 CALM      30.32S
CUMBERLAND*    CLOUDY    36  36 100 CALM      30.42S VSB<1/4

$$

VAZ025>031-181300-
SHENANDOAH VALLEY

CITY           SKY/WX    TMP DP  RH WIND       PRES   REMARKS
WINCHESTER*    CLEAR     39  36  87 SW3       30.37S
FRONT ROYAL*   CLEAR     37  37 100 MISG      30.37R
LURAY*         CLEAR     36  36 100 S5        30.39R
NEW MARKET*    CLEAR     34  33  95 CALM      30.38S
STAUNTON*      CLEAR     30  28  94 CALM      30.40R
WAYNESBORO*    CLEAR     35  35 100 CALM      30.38R

$$

WVZ021-048>050-054>055-181300-
EASTERN WEST VIRGINIA PANHANDLE

CITY           SKY/WX    TMP DP  RH WIND       PRES   REMARKS
MARTINSBURG    CLEAR     36  35  96 CALM      30.37R
PETERSBURG*    CLEAR     32  32  99 CALM      30.40R

$$

VAZ036>039-050-181300-
CENTRAL FOOTHILLS

CITY           SKY/WX    TMP DP  RH WIND       PRES   REMARKS
CHARLOTTESVILL CLEAR     38  37  97 CALM      30.37R
CULPEPER*      CLEAR     34  33  95 CALM      30.39R
ORANGE*        CLEAR     34  34 100 CALM      30.37R
GORDONSVILLE*  CLEAR     34  34 100 CALM      30.37R
WARRENTON*     CLEAR     34  32  92 CALM      30.38R

$$

VAZ055>057-181300-
NORTH AND CENTRAL PIEDMONT

CITY           SKY/WX    TMP DP  RH WIND       PRES   REMARKS
FREDERICKSBRG* CLEAR     38  38 100 CALM      30.38R
STAFFORD*      CLEAR     33  33 100 CALM      30.43R

$$

NCZ024-NYZ072-PAZ021-071-VAZ022-071-181300-
OTHER REGIONAL OBSERVATIONS

CITY           SKY/WX    TMP DP  RH WIND       PRES   REMARKS
NEW YORK CITY  CLEAR     50  38  63 VRB3      30.34R
PHILADELPHIA   CLEAR     49  41  74 SW5       30.36R
PITTSBURGH     CLEAR     41  37  86 CALM      30.34R
ROANOKE        CLEAR     39  38  96 NW3       30.39R
RICHMOND       CLEAR     41  39  93 CALM      30.38R
RALEIGH        PTCLDY    38  38 100 CALM      30.38R

$$

ANZ530>537-181300-
MARINE OBSERVATIONS

STATION/POSITION TIME  TEMP    WIND        PRES
                       AIR SEA DIR/SP/G
                 (UTC) (F)     (DEG/KT/KT) (MB)
THOMAS PT LIGHT  1200   52 67  250/  9/ 10   N/A
BALT KEY BRIDGE  1136   49     230/  4/  5 1028.1R
COVE POINT       1136   52     280/  7/ 11 1029.0R
LEWISETTA        1136   49 64  280/  3/  5 1028.4R
SOLOMONS ISLAND  1136   51 69  290/  4/  5 1028.3R
PINEY POINT      1142          310/  8/  9   N/A

$$





USA.gov is the U.S. government's official web portal to all federal, state and local government web resources and services.